[[{"header":{"parameterUnit":"m.s-1","parameterCategory":1,"la1":30.2991,"la2":30.254,"lo1":-89.0895,"lo2":-89.0444,"dy":0.0017,"dx":0.0017,"nx":28,"ny":28,"refTime":"2023-09-27T03:00:00:Z","depth":0,"parameterNumber":2,"parameterNumberName":"U-component_of_WINDS"},"data":[0,0,0,0,0,0,0,0,0,0,0,0,0,0,0,0,0,0,0,0,0,0,0,0,0,0,0,0,0,0,0,0,0,0,0,0,0,0,0,0,0,0,0,0,0,0,0,0,0,0,0,0,0,0,0,0,0,0,1.5947,1.5947,0,1.6004,1.6005,1.6006,1.5928,1.5926,1.5923,1.592,1.5984,1.5988,1.5992,0,0,0,0,0,0,0,0,0,0,0,0,0,1.5774,1.5777,1.5947,1.5947,1.5948,1.6004,1.6005,1.6006,1.5929,1.5926,1.5922,1.5919,1.5982,1.5987,1.5992,0,0,0,0,0,0,0,0,0,0,0,0,0,1.5842,1.5778,1.5946,1.5916,1.5914,1.6004,1.6005,1.6006,1.593,1.5925,1.5921,1.5917,1.598,1.5987,1.5993,1.6116,0,0,1.6013,1.6015,0,0,0,0,0,0,0,0,1.5838,1.5848,1.592,1.5919,1.5916,1.5955,1.5967,1.6043,1.5931,1.5924,1.592,1.5915,1.5978,1.5984,1.6004,1.6119,1.6122,1.6013,1.6017,1.602,1.6022,0,0,0,0,0,0,0,1.5833,1.5845,1.5969,1.5921,1.5919,1.5901,1.5906,1.5981,1.5974,1.5924,1.5919,1.5926,1.5976,1.5998,1.6005,1.6123,1.6013,1.6019,1.6023,1.6025,1.6342,1.6346,0,0,0,0,0,0,1.5832,1.5842,1.5968,1.5971,1.5866,1.5908,1.5913,1.5947,1.5973,1.5972,1.593,1.5923,1.5989,1.5998,1.6007,1.6152,1.602,1.6026,1.603,1.6337,1.6343,1.6348,0,0,0,0,0,0,1.5828,1.5844,1.5965,1.5905,1.5919,1.5915,1.5953,1.595,1.5972,1.5977,1.5976,1.5954,1.5986,1.5998,1.6089,1.6153,1.6029,1.6035,1.6332,1.6339,1.6345,1.6445,0,0,0,0,0,0,1.5824,1.5843,1.5889,1.5907,1.5923,1.6046,1.5957,1.5954,1.5983,1.5974,1.5999,1.5999,1.5984,1.608,1.6096,1.616,1.604,1.6326,1.6335,1.6343,1.6436,1.6454,1.647,0,0,0,0,0,1.5818,1.5916,1.5892,1.5907,1.598,1.605,1.6059,1.6038,1.5989,1.6035,1.6038,1.5998,1.6144,1.609,1.6107,1.6174,1.6322,1.6332,1.6342,1.6428,1.645,1.6469,0,0,0,0,0,0,1.5907,1.5917,1.5891,1.5997,1.6023,1.6036,1.6095,1.6063,1.6104,1.6094,1.6068,1.6075,1.6172,1.6182,1.6122,1.6295,1.6225,1.6239,1.6284,1.6306,1.6322,1.6318,1.6045,0,0,0,0,0,1.5939,1.5993,1.6,1.6093,1.6107,1.6099,1.6129,1.611,1.6137,1.6148,1.6157,1.6185,1.6237,1.6272,1.632,1.6437,1.6441,1.6492,1.6509,1.6523,1.6535,1.6597,1.6619,1.6381,1.6381,1.6381,0,0,1.6005,1.6018,1.6054,1.6111,1.6129,1.6187,1.6109,1.6174,1.6217,1.6158,1.6244,1.6252,1.6282,1.6386,1.6433,1.6398,1.6602,1.6536,1.6547,1.6552,1.661,1.6632,1.6652,1.6388,1.6387,1.6386,0,0,1.6156,1.6171,1.625,1.6269,1.6297,1.6291,1.631,1.6328,1.6331,1.6417,1.6373,1.6425,1.6515,1.6538,1.6561,1.6721,1.6685,1.6737,1.6826,1.6887,1.6906,1.6922,1.6978,1.6999,1.675,1.675,1.675,0,1.6236,1.632,1.6295,1.6363,1.6389,1.6337,1.6418,1.6438,1.6481,1.6501,1.6461,1.6572,1.6589,1.6697,1.6736,1.6757,1.6778,1.6734,1.6905,1.6921,1.6936,1.6989,1.7011,1.6756,1.6755,1.6755,1.6754,0,1.6417,1.6476,1.6537,1.6577,1.6611,1.6685,1.6672,1.6709,1.6688,1.6687,1.6775,1.6792,1.6843,1.6867,1.6848,1.6973,1.6951,1.6909,1.6838,1.6965,1.7015,1.7035,1.6765,1.6763,1.6761,1.6759,0,0,1.6625,1.665,1.6673,1.669,1.6717,1.6763,1.6835,1.6883,1.6915,1.6947,1.7006,1.7083,1.7044,1.7071,1.7054,1.7107,1.7231,1.7058,1.7058,1.7089,1.7369,1.74,1.7424,1.7208,1.7212,1.7215,1.7366,0,1.6775,1.6897,1.6877,1.6996,1.705,1.7002,1.7064,1.7088,1.7089,1.7136,1.7137,1.7191,1.7136,1.7152,1.7202,1.7205,1.7287,1.7194,1.7263,1.7266,1.7256,1.745,1.7483,1.7625,1.7386,1.7389,1.7391,0,1.6966,1.7003,1.7127,1.7144,1.7166,1.7223,1.7265,1.7311,1.7337,1.7333,1.7363,1.7336,1.7408,1.7336,1.7435,1.7373,1.74,1.7406,1.7411,1.7416,1.7336,1.7459,1.7669,1.769,1.7422,1.7419,1.7417,0,1.7104,1.7185,1.7269,1.7286,1.7309,1.735,1.7361,1.7383,1.7413,1.7451,1.747,1.7516,1.7541,1.7577,1.7563,1.7513,1.7665,1.7593,1.7664,1.7665,1.7698,1.7696,1.7914,1.7717,1.7717,1.7717,1.7716,0,1.7273,1.7351,1.7332,1.7384,1.7469,1.7446,1.7532,1.7538,1.7558,1.761,1.7572,1.7623,1.7602,1.7651,1.7641,1.7724,1.7736,1.7735,1.7732,1.7738,1.7738,1.7755,1.7744,1.7722,1.7721,1.772,1.7719,0,1.7441,1.7432,1.7521,1.7535,1.754,1.7603,1.7615,1.7664,1.7662,1.7729,1.7743,1.774,1.7796,1.7786,1.7848,1.7841,1.7945,1.7929,1.7935,1.7931,1.8003,1.7996,1.8239,1.827,1.8054,1.8056,1.8058,0,1.7549,1.7608,1.7628,1.766,1.7674,1.7727,1.7756,1.7736,1.7769,1.7803,1.7848,1.79,1.7941,1.8033,1.8036,1.8083,1.8068,1.815,1.8075,1.8079,1.8068,1.8064,1.8069,1.8165,1.8167,1.8169,1.8171,0,1.7742,1.7734,1.7778,1.7821,1.7858,1.7891,1.792,1.7949,1.7931,1.797,1.8026,1.8058,1.8121,1.8173,1.8217,1.8229,1.8198,1.8195,1.8213,1.822,1.8221,1.822,1.7975,1.8189,1.8187,1.8186,1.8185,1.8184,1.7882,1.7931,1.7953,1.8004,1.8024,1.8052,1.8098,1.8101,1.8147,1.8196,1.8182,1.8245,1.827,1.8325,1.8343,1.8392,1.8362,1.839,1.8396,1.8403,1.8411,1.8214,1.8401,1.84,1.84,1.8399,1.8399,0,1.8071,1.8083,1.813,1.8171,1.8211,1.8177,1.8208,1.8244,1.83,1.8325,1.8365,1.843,1.848,1.8487,1.8535,1.8573,1.856,1.8587,1.8583,1.8586,1.8436,1.8415,1.8597,1.8597,1.8597,1.8597,1.8596,1.8596,1.8174,1.8256,1.8251,1.8342,1.8353,1.8414,1.8434,1.846,1.848,1.8553,1.8595,1.8599,1.8617,1.8665,1.871,1.8711,1.8729,1.8762,1.8757,1.8617,1.8597,1.8578,1.8557,1.8766,1.8767,1.8902,1.8903,1.8904]},{"header":{"parameterUnit":"m.s-1","parameterCategory":1,"la1":30.2991,"la2":30.254,"lo1":-89.0895,"lo2":-89.0444,"dy":0.0017,"dx":0.0017,"nx":28,"ny":28,"refTime":"2023-09-27T03:00:00:Z","depth":0,"parameterNumber":3,"parameterNumberName":"V-component_of_WINDS"},"data":[0,0,0,0,0,0,0,0,0,0,0,0,0,0,0,0,0,0,0,0,0,0,0,0,0,0,0,0,0,0,0,0,0,0,0,0,0,0,0,0,0,0,0,0,0,0,0,0,0,0,0,0,0,0,0,0,0,0,2.0185,2.0188,0,2.0441,2.0444,2.0447,2.0443,2.0439,2.0436,2.0433,2.0699,2.0709,2.072,0,0,0,0,0,0,0,0,0,0,0,0,0,1.9694,1.9703,2.0185,2.0188,2.0191,2.044,2.0444,2.0447,2.0443,2.0439,2.0435,2.0431,2.0696,2.0708,2.072,0,0,0,0,0,0,0,0,0,0,0,0,0,1.9924,1.9706,2.0184,2.0219,2.0225,2.044,2.0444,2.0448,2.0444,2.0439,2.0434,2.0429,2.0692,2.0707,2.0722,2.0921,0,0,2.0769,2.0776,0,0,0,0,0,0,0,0,1.9911,1.9942,2.0211,2.0217,2.0224,2.0405,2.0368,2.0607,2.0446,2.0361,2.0433,2.0427,2.0606,2.0628,2.0687,2.0933,2.0944,2.0771,2.078,2.0787,2.0791,0,0,0,0,0,0,0,1.9895,1.9931,2.0286,2.0215,2.0223,2.0222,2.0249,2.0414,2.0509,2.0368,2.0369,2.0399,2.0608,2.0673,2.0694,2.0948,2.077,2.0784,2.0794,2.08,2.1363,2.1369,0,0,0,0,0,0,1.9872,1.9918,2.0278,2.0294,2.0052,2.0235,2.0266,2.0352,2.0508,2.0526,2.0403,2.0397,2.0649,2.0676,2.0703,2.0941,2.0787,2.0801,2.081,2.1358,2.1365,2.1371,0,0,0,0,0,0,1.9861,1.9904,2.0268,2.0106,2.0152,2.0249,2.0346,2.036,2.0424,2.0534,2.0551,2.0451,2.0646,2.0681,2.0865,2.0951,2.0808,2.0822,2.1351,2.136,2.1368,2.1422,0,0,0,0,0,0,1.9847,1.99,1.9977,2.0108,2.0161,2.0426,2.0352,2.0368,2.045,2.0445,2.0583,2.0601,2.0644,2.0842,2.088,2.0969,2.0834,2.1344,2.1355,2.1365,2.1413,2.1432,2.1447,0,0,0,0,0,1.983,1.9984,1.9981,2.0024,2.0259,2.0431,2.0461,2.0507,2.0457,2.0534,2.0604,2.0597,2.0935,2.0861,2.0904,2.0999,2.1338,2.1352,2.1364,2.1405,2.1428,2.1447,0,0,0,0,0,0,1.9864,2.0002,2.0,2.0202,2.0304,2.043,2.0529,2.053,2.065,2.0641,2.0693,2.0724,2.0907,2.0972,2.0886,2.1196,2.1131,2.1153,2.1147,2.1169,2.1186,2.1166,2.0847,0,0,0,0,0,1.9894,2.0022,2.0136,2.0303,2.0354,2.0432,2.0509,2.0534,2.0643,2.0687,2.0771,2.0878,2.1007,2.1092,2.1218,2.1422,2.145,2.1509,2.1526,2.1539,2.1557,2.1665,2.1691,2.1413,2.1413,2.1413,0,0,1.996,2.0051,2.0129,2.0312,2.0394,2.0524,2.0469,2.0611,2.0707,2.071,2.0886,2.0951,2.1073,2.1266,2.1356,2.1326,2.164,2.1555,2.1565,2.1577,2.1681,2.1707,2.173,2.1422,2.142,2.1419,0,0,2.0145,2.0228,2.0373,2.0455,2.0579,2.063,2.0664,2.0789,2.0831,2.1009,2.1011,2.1127,2.1351,2.1436,2.1509,2.172,2.1716,2.176,2.1849,2.1953,2.1975,2.1995,2.2066,2.2092,2.1778,2.1778,2.1778,0,2.0211,2.0406,2.0449,2.0589,2.0668,2.0672,2.0819,2.0897,2.1057,2.1111,2.1075,2.1351,2.1435,2.1645,2.1696,2.1756,2.1795,2.1744,2.1968,2.1988,2.2007,2.2076,2.2104,2.1782,2.1782,2.1781,2.1781,0,2.0479,2.0614,2.0717,2.0867,2.0958,2.1101,2.1164,2.125,2.1267,2.132,2.1498,2.1597,2.1741,2.1793,2.1813,2.2005,2.1982,2.1957,2.1892,2.2037,2.2103,2.213,2.1788,2.1787,2.1785,2.1784,0,0,2.0696,2.0863,2.09,2.0966,2.11,2.1206,2.1347,2.1485,2.1556,2.1666,2.1784,2.197,2.1945,2.2028,2.2056,2.2148,2.2303,2.2111,2.2114,2.214,2.2517,2.2534,2.2564,2.2301,2.2306,2.2311,2.2505,0,2.0893,2.1143,2.1182,2.1402,2.1525,2.1529,2.1651,2.1746,2.1799,2.1911,2.197,2.2099,2.2059,2.2108,2.2199,2.2265,2.2379,2.2252,2.2411,2.2416,2.2378,2.2599,2.2619,2.2798,2.2532,2.2536,2.2539,0,2.1157,2.1268,2.1499,2.1611,2.1664,2.1774,2.1901,2.2008,2.2115,2.2146,2.2235,2.2251,2.2396,2.2324,2.2523,2.2435,2.2502,2.2544,2.2552,2.2568,2.2485,2.2618,2.2857,2.2882,2.2581,2.2578,2.2575,0,2.1287,2.1495,2.1659,2.1716,2.1852,2.1928,2.1989,2.209,2.2169,2.228,2.233,2.2458,2.2527,2.2624,2.2673,2.2617,2.2867,2.2801,2.2896,2.2894,2.2949,2.2944,2.3199,2.2995,2.2995,2.2994,2.2993,0,2.1502,2.1642,2.1718,2.1819,2.1975,2.2019,2.2172,2.2231,2.232,2.243,2.2442,2.2546,2.2605,2.2717,2.2756,2.2912,2.2945,2.2973,2.2981,2.2971,2.2967,2.3015,2.3003,2.3001,2.3,2.2998,2.2997,0,2.1675,2.1732,2.191,2.2022,2.2054,2.2163,2.226,2.2356,2.2406,2.2546,2.2582,2.2661,2.2793,2.285,2.3014,2.304,2.3218,2.3219,2.3181,2.3183,2.3274,2.3264,2.3567,2.3607,2.3379,2.3381,2.3383,0,2.1807,2.1915,2.2037,2.2111,2.2172,2.2293,2.2371,2.2417,2.2498,2.2624,2.2705,2.2836,2.2944,2.3154,2.3226,2.335,2.3352,2.345,2.3371,2.3355,2.335,2.3342,2.3351,2.3464,2.3466,2.3468,2.3469,0,2.2035,2.2057,2.2169,2.229,2.2382,2.2481,2.2577,2.2636,2.2697,2.2787,2.292,2.3003,2.3167,2.3296,2.3423,2.3485,2.3487,2.3493,2.3521,2.3511,2.3483,2.3496,2.3217,2.3486,2.3485,2.3483,2.3482,2.3482,2.2191,2.2284,2.2383,2.2506,2.2582,2.267,2.2765,2.2824,2.2936,2.3071,2.3092,2.3233,2.3332,2.3502,2.3568,2.3679,2.3655,2.3697,2.3707,2.3716,2.3719,2.3466,2.3703,2.3702,2.3702,2.3701,2.3701,0,2.2416,2.2479,2.2592,2.2723,2.2819,2.281,2.2914,2.2995,2.3118,2.321,2.3313,2.3464,2.3588,2.3667,2.3792,2.3865,2.3868,2.3896,2.389,2.3903,2.3736,2.3697,2.389,2.389,2.389,2.389,2.389,2.389,2.2545,2.2701,2.2733,2.2925,2.2987,2.3124,2.3184,2.3264,2.3336,2.3503,2.3605,2.3655,2.3741,2.3871,2.3983,2.4003,2.4047,2.4075,2.4094,2.3935,2.3916,2.3897,2.3861,2.4085,2.4085,2.4252,2.4253,2.4255]}]]